Notices

What's New in latest Release from April 7th, 2021:

- Updated Glossary, including Speed of Maximum Gust, and Total Hourly Precipitation

- Updated national and regional climate services offices contacts and prices information

- Addition of station inventory lists for 1981-2010, 1971-2000, and 1961-1990 Normals.

If you haven't already, please take our survey and provide feedback about our website: https://eccc.sondage-survey.ca/f/LanguageSelection.aspx?s=442ca660-fcf1-47c0-95a9-59707d6fd709

Hourly Data Report for August 14, 2017

TORONTO CITY
ONTARIO

43°40'00.000" N
79°24'00.000" W
112.50 m
6158355
71508
XTO

Download Data

Hourly Data (August 2017)
Hourly Data Report for August 14, 2017
TIME
LST
Temp Definition
°C
Dew Point Definition
°C
Rel Hum Definition
%
Precip. Amount Definition
mm

Wind Dir Definition
10's deg

Wind Spd Definition
km/h
Visibility Definition
km
Stn Press Definition
kPa
Hmdx Definition


Wind Chill Definition


Weather Definition


00:00 20.5 12.0 58 LegendMM LegendMM LegendMM   100.29     LegendNANA
01:00 19.5 11.4 59 LegendMM LegendMM LegendMM   100.28     LegendNANA
02:00 18.6 11.8 65 LegendMM LegendMM LegendMM   100.26     LegendNANA
03:00 18.4 11.8 65 LegendMM LegendMM LegendMM   100.27     LegendNANA
04:00 18.1 12.0 67 LegendMM LegendMM LegendMM   100.27     LegendNANA
05:00 17.9 12.7 72 LegendMM LegendMM LegendMM   100.26     LegendNANA
06:00 17.7 12.3 71 LegendMM LegendMM LegendMM   100.26     LegendNANA
07:00 19.3 12.2 64 LegendMM LegendMM LegendMM   100.27     LegendNANA
08:00 20.9 11.5 55 LegendMM LegendMM LegendMM   100.27     LegendNANA
09:00 22.0 12.6 55 LegendMM LegendMM LegendMM   100.24 25   LegendNANA
10:00 24.4 11.4 44 LegendMM LegendMM LegendMM   100.19 26   LegendNANA
11:00 24.7 13.0 48 LegendMM LegendMM LegendMM   100.17 27   LegendNANA
12:00 24.6 13.0 49 LegendMM LegendMM LegendMM   100.13 27   LegendNANA
13:00 25.9 11.5 40 LegendMM LegendMM LegendMM   100.06 28   LegendNANA
14:00 25.0 11.3 42 LegendMM LegendMM LegendMM   100.03 27   LegendNANA
15:00 25.3 11.1 41 LegendMM LegendMM LegendMM   99.98 27   LegendNANA
16:00 24.4 11.9 46 LegendMM LegendMM LegendMM   99.90 27   LegendNANA
17:00 23.4 14.4 57 LegendMM LegendMM LegendMM   99.84 27   LegendNANA
18:00 22.7 13.9 58 LegendMM LegendMM LegendMM   99.79 26   LegendNANA
19:00 22.5 13.6 57 LegendMM LegendMM LegendMM   99.77 26   LegendNANA
20:00 22.0 14.7 64 LegendMM LegendMM LegendMM   99.78 26   LegendNANA
21:00 21.4 16.4 74 LegendMM LegendMM LegendMM   99.75 26   LegendNANA
22:00 20.5 16.9 80 LegendMM LegendMM LegendMM   99.74 26   LegendNANA
23:00 20.2 16.9 81 LegendMM LegendMM LegendMM   99.75 25   LegendNANA

Notes on Data Quality.

Legend

  • E = Estimated
  • M = Missing
  • NA = Not Available*
  • [empty] = Indicates an unobserved value
Date modified: